Theta_e
336 337 331 328 329 327 320 319 301 311 306 300 299 301 301 308 307 306 306 307 305 309 309 310 310 309 307 307 307 308 310 306 307 301 304 320 333 332 338 341 338 340 339 342 347 347 349 348 350 351 351 350 350 350 350 350 349 349 349 349 349 349 348 348 347 348 348 348 349 348 349 349 349 348 348 348 347 347 346 346 346 346 347 347 346 347 347 347 347 346 345 345 343 341 340 339 338
332 329 330 330 326 321 315 316 304 302 304 300 301 301 303 306 307 304 304 305 306 308 310 310 311 310 310 310 310 310 309 312 312 311 314 323 331 334 338 340 335 337 338 342 348 345 348 350 347 350 351 350 350 350 350 350 349 349 348 349 349 349 348 348 348 348 347 348 349 349 349 348 348 347 347 347 346 346 345 345 346 346 346 346 346 347 346 346 345 344 344 342 340 339 338 338 336
331 329 327 327 322 318 313 314 300 300 298 296 299 302 305 304 304 305 306 307 309 310 309 309 310 309 309 309 307 307 305 313 313 314 314 326 317 329 337 341 336 337 337 342 347 345 347 347 346 349 350 350 350 350 350 350 349 349 349 348 348 348 348 348 348 348 348 348 349 349 348 348 347 347 346 346 345 345 345 345 345 346 345 346 345 346 345 345 344 343 342 340 339 338 337 336 335
334 331 325 322 314 319 308 309 305 300 297 298 298 303 304 303 304 305 308 309 310 310 309 309 308 312 308 306 308 312 310 311 314 314 313 321 330 335 336 338 338 338 338 342 345 346 347 346 345 349 350 350 350 350 350 350 349 349 349 348 347 347 348 347 348 348 349 348 349 348 348 348 348 347 346 345 344 344 344 345 345 345 345 345 344 344 343 342 342 341 340 338 338 337 336 335 334
334 327 325 322 313 309 309 305 302 301 297 300 297 302 304 305 305 306 308 310 310 310 309 309 308 312 312 310 311 306 308 312 314 317 315 328 330 336 336 339 334 336 340 342 343 346 347 345 345 347 350 350 350 350 350 350 350 350 349 348 348 347 348 348 348 348 348 348 349 348 348 347 347 346 345 344 343 343 343 344 344 344 344 344 343 342 341 340 339 339 338 337 337 336 334 333 332
327 324 327 320 310 316 308 301 301 301 303 304 300 302 304 306 305 307 308 310 310 309 310 309 307 308 307 309 312 309 314 308 314 315 319 331 333 336 336 339 331 334 339 341 343 346 348 341 345 346 350 350 349 350 350 350 350 349 349 349 348 348 348 348 349 348 348 347 347 348 348 347 346 345 345 343 342 340 339 339 341 341 341 341 342 341 340 338 338 338 337 336 336 334 332 330 329
325 320 316 316 313 312 302 301 300 301 303 304 302 303 305 306 307 307 308 308 309 310 310 308 310 309 306 311 312 314 316 319 313 323 332 333 338 335 337 334 333 333 339 339 342 345 349 341 345 348 349 349 349 349 350 349 349 348 348 348 348 348 348 348 349 348 347 347 347 346 346 346 345 344 343 342 340 339 337 337 339 340 340 339 340 339 338 337 336 336 335 334 334 332 329 327 326
327 320 315 307 308 305 302 302 301 303 303 305 305 304 306 306 308 307 307 306 306 306 308 309 309 305 306 311 306 315 318 316 322 326 327 326 336 338 339 334 334 333 338 338 342 344 342 340 344 346 347 348 349 349 350 349 348 348 348 348 348 348 348 348 349 348 347 347 347 346 346 345 344 343 342 341 340 338 337 337 338 338 339 339 338 337 336 335 334 334 334 333 331 329 326 326 325
320 315 318 311 303 307 301 300 301 305 304 305 306 308 310 308 308 307 306 308 308 309 308 309 309 304 307 308 308 315 315 317 322 322 323 328 333 338 337 335 333 335 338 337 342 345 348 339 343 345 346 348 348 349 348 349 348 348 348 348 348 348 348 348 348 348 347 347 346 346 346 344 343 342 342 341 340 339 336 337 337 338 338 338 336 335 333 333 333 333 332 331 328 326 325 325 324
316 315 309 307 307 299 301 302 301 304 303 305 305 305 306 307 307 307 307 307 308 307 309 309 309 305 309 306 309 313 316 318 318 321 322 325 331 335 335 337 336 337 338 338 341 343 345 338 339 342 344 346 348 348 348 349 348 348 348 347 348 348 348 348 348 348 347 347 346 345 344 344 343 342 341 341 340 338 334 334 335 336 335 335 334 333 333 332 332 331 331 329 326 325 324 324 323
310 312 315 304 302 300 300 300 301 303 304 306 306 308 308 309 307 307 307 307 309 307 308 308 306 306 308 308 310 324 319 319 315 316 322 323 332 333 333 337 338 340 338 340 341 342 343 345 334 338 341 343 345 347 347 348 348 348 348 348 348 348 348 348 348 347 347 347 346 345 344 342 342 340 340 336 334 331 332 333 334 334 333 333 333 332 332 333 332 331 329 327 326 325 323 323 322
310 308 309 302 300 300 300 299 300 302 304 305 305 308 308 308 307 306 307 305 307 307 307 308 306 309 305 307 310 318 318 316 318 324 323 326 327 334 335 336 339 340 340 340 340 340 342 344 344 336 335 337 341 344 344 345 346 348 348 348 348 348 348 348 348 347 346 346 346 344 343 342 341 339 336 335 334 333 332 332 332 332 332 332 332 331 332 332 331 330 328 326 325 324 323 322 321
310 312 305 301 301 301 301 300 301 302 303 305 305 307 308 307 306 306 306 305 306 305 306 310 310 309 303 305 311 313 314 316 319 323 324 324 327 334 336 335 337 339 339 341 340 340 342 340 342 343 340 332 334 336 340 341 343 346 346 347 347 347 347 347 347 347 347 347 345 342 342 342 341 340 336 335 333 333 332 332 331 332 332 331 331 331 331 331 330 329 327 326 325 324 323 321 319
310 312 308 301 306 301 299 300 301 301 301 304 306 307 307 306 307 307 306 304 305 305 309 311 309 309 305 307 309 311 317 318 318 322 322 325 330 332 334 335 338 338 339 340 339 339 341 341 339 341 343 342 345 336 332 336 339 342 344 344 344 344 344 345 345 344 344 344 342 341 339 338 339 339 337 335 332 332 332 331 331 332 331 331 331 331 331 330 329 328 326 325 324 322 321 320 319
309 314 306 304 301 302 302 299 300 300 300 305 306 306 306 308 307 307 306 304 305 310 310 312 310 306 303 306 306 315 316 319 321 322 327 328 330 331 334 335 336 337 338 337 338 339 338 340 339 339 341 341 342 342 344 341 331 336 339 340 340 341 341 341 342 341 340 340 339 337 333 332 331 331 332 333 332 332 332 329 331 331 331 331 331 331 330 330 328 326 325 324 323 321 320 319 317
316 310 307 302 300 301 302 302 302 301 301 305 306 307 305 307 309 306 307 308 307 312 310 306 311 306 308 307 309 314 315 318 320 324 324 327 327 329 330 331 331 332 335 336 336 337 338 338 339 338 338 340 339 340 340 341 334 328 333 336 336 338 338 338 337 336 334 333 332 330 326 328 326 329 324 330 327 331 330 327 329 331 330 330 330 330 330 329 327 326 326 324 322 320 319 317 315
315 312 303 302 298 301 303 302 303 298 304 305 306 306 303 304 308 308 309 308 306 307 308 310 308 311 308 309 312 314 317 321 322 323 325 324 325 324 326 327 328 330 332 334 335 335 337 338 337 338 337 337 339 340 338 340 340 328 328 328 330 333 334 334 334 329 325 323 325 320 322 332 332 332 330 331 322 330 323 322 327 330 329 330 329 329 329 328 327 326 325 323 322 319 316 315 313
312 304 302 299 302 300 305 303 303 306 303 304 305 306 305 302 306 307 307 306 306 307 307 309 311 311 312 313 314 317 318 317 321 320 321 322 323 321 322 324 326 326 330 331 333 334 335 337 337 337 337 337 336 336 336 337 339 333 339 339 338 335 329 328 333 338 327 336 323 327 332 331 332 332 330 326 329 328 325 320 324 330 329 331 330 328 328 328 327 325 324 322 320 317 313 310 308
306 304 303 299 303 303 308 306 305 304 304 305 306 307 305 304 305 307 303 304 305 305 307 309 309 310 312 313 313 315 316 316 319 317 316 319 321 319 321 324 324 326 328 330 331 333 335 336 337 336 336 337 337 336 336 337 336 337 338 338 339 331 334 335 337 337 336 335 333 332 331 331 331 331 330 328 328 321 326 319 323 327 329 329 329 327 327 327 326 324 323 321 318 314 313 312 307
308 304 300 302 307 307 308 307 305 306 306 305 305 306 305 306 306 308 303 303 304 303 304 306 306 307 310 312 313 313 313 315 317 316 315 316 319 319 319 322 324 325 326 329 330 333 334 335 335 336 336 337 336 335 336 335 335 335 336 335 335 336 336 336 336 335 334 334 334 332 331 331 331 331 324 320 322 326 325 318 322 324 326 324 324 326 326 326 324 324 321 318 313 312 310 308 308
308 305 301 303 306 305 307 308 308 307 307 305 305 306 304 306 307 307 304 302 303 304 307 307 307 308 310 311 312 313 312 313 314 315 315 315 316 319 318 319 323 325 327 329 330 330 333 334 334 335 336 336 336 335 334 334 334 334 334 334 335 335 335 334 334 334 333 333 333 332 331 331 331 330 328 327 326 326 326 324 325 327 326 325 321 324 323 323 322 320 316 313 309 307 307 307 307
310 305 306 306 306 305 308 307 308 307 307 305 305 303 303 308 307 305 304 300 301 304 307 308 308 309 309 309 311 312 311 313 312 312 314 315 315 315 317 319 319 324 327 326 328 330 331 333 334 334 335 336 336 335 334 334 333 333 333 333 334 334 334 333 333 333 333 333 333 331 330 330 330 328 327 326 325 326 325 323 323 325 325 324 322 322 321 321 319 316 313 309 305 306 307 307 306
301 304 305 307 307 304 307 307 307 306 305 304 304 306 307 306 305 306 306 304 306 309 309 309 310 310 311 311 311 311 311 311 311 312 312 314 315 315 315 316 317 318 325 326 328 329 331 331 333 334 334 335 335 336 335 334 333 333 333 334 334 333 333 333 332 332 333 333 333 331 329 328 327 327 325 325 324 323 323 322 322 323 323 323 322 320 319 319 317 313 307 305 305 306 307 308 307
304 300 304 304 307 306 307 306 307 306 305 304 306 307 304 304 301 307 305 307 309 311 311 311 311 311 311 310 310 310 310 310 311 311 313 313 314 315 317 316 316 318 323 326 326 327 329 330 331 332 332 333 333 334 334 334 333 333 333 332 333 332 332 332 332 331 333 332 332 330 328 328 326 326 325 323 322 322 322 322 323 322 323 323 321 320 320 318 314 309 306 306 305 306 305 305 305
303 301 304 305 306 307 307 306 306 307 306 307 306 304 303 304 304 305 304 306 308 309 310 311 311 311 310 310 309 310 310 311 310 311 313 314 316 316 318 318 318 318 318 321 325 325 328 330 330 330 331 330 332 333 332 333 333 333 333 332 332 329 332 332 332 332 331 331 331 331 329 327 326 326 323 323 322 321 322 322 322 321 323 323 320 320 318 314 309 305 305 305 305 304 304 304 303
304 304 305 305 305 306 306 305 306 306 306 306 303 302 304 305 306 303 304 306 308 309 309 309 309 309 308 309 309 309 309 309 311 311 311 314 315 315 316 317 318 317 317 319 322 325 325 328 329 329 330 330 331 332 332 331 332 331 332 331 331 330 331 331 332 330 330 330 329 330 329 328 327 325 323 322 321 320 321 322 322 323 322 320 318 316 314 310 306 305 305 304 303 304 302 303 303
303 303 303 302 303 303 304 303 304 305 304 305 301 301 302 305 303 298 305 307 308 308 307 308 307 307 307 308 308 309 308 309 309 310 311 312 313 314 316 317 317 317 318 318 319 323 325 325 328 328 329 330 330 330 330 330 330 330 331 332 332 330 331 331 331 331 330 329 328 329 328 328 327 325 323 321 320 320 319 320 320 320 319 317 315 313 311 308 305 304 304 302 303 302 302 302 302
303 303 302 301 302 303 304 304 303 304 302 304 303 301 303 303 302 300 304 307 308 306 307 307 307 307 307 308 308 310 309 310 310 311 310 310 311 312 314 315 316 317 318 318 319 321 324 324 326 327 327 329 328 329 329 329 329 330 331 331 331 331 331 330 331 331 329 329 328 328 327 327 326 324 322 321 319 319 318 318 318 317 316 314 313 311 308 306 305 305 306 305 305 303 302 301 302
302 301 297 299 301 300 303 302 303 304 302 302 303 299 298 299 298 303 306 307 307 306 306 306 306 306 307 308 308 308 308 309 310 310 310 311 311 311 311 313 315 315 318 319 320 320 320 324 324 326 327 328 328 328 328 329 330 330 330 330 331 331 330 330 329 330 330 329 328 327 326 327 325 323 321 320 318 318 317 317 316 316 315 313 311 310 308 306 305 305 305 305 303 303 302 301 303
302 301 298 298 298 298 303 305 303 301 302 302 301 291 296 300 303 305 307 307 307 305 305 305 305 306 306 307 307 308 308 309 309 310 311 311 312 311 311 311 312 313 315 318 319 319 320 323 324 325 326 326 327 326 327 328 328 329 330 330 330 330 330 329 328 329 329 328 327 325 325 325 324 323 321 319 317 316 316 315 314 314 314 312 310 308 305 304 303 304 303 302 302 301 300 301 300
297 300 300 295 295 295 302 302 301 298 301 301 301 292 296 300 303 305 306 305 304 303 303 304 304 305 306 306 307 307 308 309 309 310 311 311 311 311 312 312 311 311 312 315 317 319 319 321 323 322 324 326 326 326 326 328 328 329 329 329 329 329 329 328 328 328 328 327 326 323 324 324 323 322 320 317 315 314 313 313 313 312 312 311 307 307 305 303 302 302 301 299 300 300 300 299 299
300 295 294 298 295 297 302 303 300 298 299 301 299 292 295 300 302 305 306 306 304 302 303 303 304 305 305 306 306 307 307 309 310 310 310 310 311 310 311 311 311 311 311 312 315 318 317 318 321 321 323 323 325 325 326 327 327 328 328 324 329 329 328 328 328 327 327 327 325 323 322 323 321 321 319 317 315 313 312 311 311 311 311 308 307 306 304 301 301 302 300 300 298 299 299 298 299
299 296 294 294 297 297 299 304 303 303 300 299 298 294 297 298 303 304 305 304 304 303 303 304 304 305 305 306 306 307 307 308 310 309 310 310 310 310 310 309 311 311 311 311 312 314 316 316 318 319 320 322 323 324 325 326 326 326 327 327 327 328 327 327 327 327 327 326 324 322 321 321 319 319 318 316 314 313 311 310 310 310 309 307 306 304 302 302 301 302 299 301 300 299 299 299 298
296 300 295 298 296 297 295 301 304 303 300 297 298 294 295 298 301 303 304 304 303 302 302 303 304 305 305 306 306 306 306 307 307 308 309 309 309 310 310 310 311 311 311 310 312 312 313 315 317 319 319 320 321 322 323 324 324 325 325 326 325 326 326 326 326 326 325 324 323 321 321 319 317 318 316 314 313 312 311 309 309 308 307 306 304 303 302 301 302 301 299 301 300 300 298 297 297
296 297 296 297 299 298 297 296 300 300 300 297 298 297 297 300 302 303 303 304 303 303 303 303 304 304 305 305 306 306 307 307 308 308 309 309 309 309 309 309 309 310 309 309 309 311 313 313 315 316 316 317 318 320 322 323 323 323 323 324 324 324 324 324 325 324 324 323 322 321 319 318 316 317 315 313 312 310 309 308 307 307 305 304 303 302 301 301 302 301 300 299 300 300 299 299 298
297 298 296 296 294 295 296 300 302 301 298 296 297 295 297 299 300 301 303 304 303 303 304 304 304 305 305 306 306 307 307 307 309 310 310 308 308 308 308 309 309 309 308 307 308 309 310 311 313 315 315 314 317 317 320 320 320 319 319 320 320 320 321 320 322 322 322 321 321 319 317 317 315 315 314 313 312 309 308 306 305 306 304 303 302 301 299 299 300 301 300 300 299 299 300 299 299
299 298 296 295 295 296 299 299 301 303 296 296 297 297 297 298 299 301 302 303 303 303 303 303 304 305 306 306 305 306 307 306 311 307 307 307 307 307 307 307 307 307 307 307 307 308 309 309 311 311 313 313 314 315 316 317 317 317 318 317 317 318 318 319 319 320 320 319 319 318 315 315 315 314 313 312 310 308 307 306 305 304 303 302 302 301 301 301 301 301 300 299 299 298 298 299 299
297 296 295 294 296 293 298 298 301 302 295 295 297 296 296 298 299 301 303 303 302 303 303 303 304 305 306 306 305 305 306 307 307 306 305 305 305 305 305 305 305 303 304 304 305 306 307 308 308 310 312 311 312 313 315 316 316 316 316 316 317 317 317 316 316 317 318 318 317 316 314 314 314 312 311 311 310 309 307 305 304 303 302 301 301 302 302 300 301 301 300 297 299 297 297 299 298
297 295 295 294 294 297 299 300 301 298 295 294 297 294 295 297 299 302 302 303 304 304 305 305 304 305 304 304 304 304 304 303 304 304 304 303 303 303 302 302 303 303 303 304 304 304 305 306 308 309 310 310 310 311 312 313 315 316 316 315 316 315 317 317 316 316 316 315 315 314 313 313 312 311 310 310 309 308 307 305 303 302 301 301 300 300 300 300 300 300 299 296 295 297 297 299 297
295 295 293 292 296 294 292 298 297 298 296 294 296 293 295 298 301 302 304 303 304 306 306 306 306 303 302 302 302 302 302 302 301 301 301 301 301 300 300 300 301 302 302 302 303 303 304 304 306 307 308 309 309 310 309 312 313 314 315 315 314 314 312 313 313 313 313 312 311 311 312 312 311 310 309 309 308 307 306 304 303 302 301 300 300 299 300 300 299 299 299 298 297 293 295 295 298
297 296 295 294 295 296 296 295 298 298 299 299 296 295 297 301 300 300 302 304 304 305 304 304 304 305 304 303 302 302 301 300 300 300 300 300 299 299 299 299 300 299 300 301 302 302 302 303 304 306 306 307 308 308 309 309 311 311 312 311 310 310 309 308 308 308 309 309 309 309 309 310 310 309 309 307 306 306 306 304 303 301 300 300 299 299 299 300 299 299 299 297 296 295 293 295 296
295 298 297 297 298 296 296 297 295 293 294 294 295 289 292 298 299 299 302 303 303 301 300 299 300 301 301 299 300 301 301 300 298 298 298 298 298 298 298 298 298 298 298 299 301 302 302 302 303 304 305 306 305 307 307 307 308 307 307 306 305 305 305 306 305 305 306 306 306 309 309 309 309 308 308 307 306 305 305 304 303 301 300 299 299 298 299 300 299 299 298 298 297 297 296 294 294
293 295 300 299 297 296 295 295 294 289 288 295 296 288 286 297 297 300 301 301 302 299 298 298 299 299 299 298 299 298 298 298 298 298 297 297 297 297 296 296 297 297 297 299 300 300 301 301 302 303 303 304 304 305 306 306 306 306 306 306 306 305 304 306 307 308 307 307 308 307 307 307 307 307 307 307 306 304 304 304 303 301 300 299 299 298 298 299 299 299 299 297 297 297 298 293 293
292 298 298 298 296 295 295 294 293 291 296 297 295 293 289 289 296 300 300 300 299 297 297 297 298 297 298 298 297 297 297 297 297 296 296 296 296 296 295 296 296 296 298 299 299 299 299 299 299 300 301 301 302 303 304 305 304 305 305 305 304 304 304 304 305 305 306 305 305 305 305 305 305 305 305 306 305 304 303 303 302 301 300 300 299 297 297 299 300 300 299 298 298 296 297 295 294
295 296 298 296 295 295 294 293 292 293 291 288 292 295 289 289 296 300 300 297 298 296 296 296 297 297 297 297 297 297 296 296 295 295 295 295 295 295 295 295 296 297 297 297 298 298 298 298 298 298 299 299 300 301 302 303 303 303 303 303 303 304 304 304 304 305 304 304 303 303 303 303 303 304 304 304 304 304 302 302 302 301 300 299 298 298 298 299 299 299 298 297 297 296 296 296 296
299 297 297 296 296 295 294 291 291 291 289 285 291 294 287 289 297 297 298 296 296 295 295 296 296 296 296 296 296 296 296 296 295 295 295 295 295 295 295 296 295 296 296 298 298 298 297 298 297 297 297 298 298 299 300 301 302 302 302 302 302 302 303 303 304 303 303 303 302 302 302 302 302 302 302 303 303 303 302 301 301 301 300 299 298 298 298 298 299 299 298 297 297 296 296 296 296
296 298 295 295 295 294 293 292 291 289 284 288 294 294 292 286 294 296 296 296 298 296 295 296 296 296 295 295 294 295 294 294 294 294 294 294 295 295 295 294 295 295 296 296 296 296 296 296 296 296 296 297 297 298 298 299 300 301 301 301 301 301 301 302 301 302 302 302 301 301 301 301 301 301 301 301 302 302 302 301 301 301 300 299 298 298 297 297 298 299 299 298 296 296 296 296 296
296 293 292 292 292 293 290 289 291 285 284 291 294 295 294 285 291 297 298 298 298 298 295 295 295 294 294 294 293 294 293 293 293 293 293 293 294 294 294 293 293 294 294 294 295 295 295 295 296 295 295 296 296 296 297 297 297 298 298 299 299 300 300 300 299 299 300 300 301 301 301 301 300 301 300 300 300 301 301 300 300 300 299 299 298 298 297 297 297 298 298 297 296 297 297 296 296
294 292 291 287 286 288 285 287 283 285 285 289 290 294 290 289 293 296 299 298 298 299 298 296 294 293 293 293 293 293 293 292 292 292 292 292 292 292 292 292 293 292 292 293 293 294 294 294 294 294 294 295 296 296 296 296 296 296 296 296 297 298 298 299 299 299 300 299 300 300 300 299 300 299 299 298 299 300 300 299 299 299 298 299 299 298 297 297 297 297 297 297 296 295 295 295 295
292 290 289 286 283 283 280 284 287 286 289 289 290 292 287 292 295 299 299 297 297 297 297 297 295 293 292 292 292 292 292 292 292 292 292 292 292 292 292 292 292 292 292 292 293 293 293 293 293 293 293 294 295 295 295 295 295 295 295 295 296 296 296 296 297 297 298 298 299 299 299 299 299 299 300 299 299 300 299 299 299 299 299 299 298 298 298 297 297 296 296 296 295 295 295 295 294
293 297 294 289 288 284 279 282 280 282 285 287 289 287 285 286 291 299 297 295 296 295 295 294 293 293 292 292 292 291 291 291 292 291 291 291 291 292 292 292 292 292 292 292 292 292 293 292 292 292 292 293 293 294 294 294 295 295 295 295 295 295 295 295 295 296 296 296 297 297 298 298 298 299 299 300 301 300 299 299 299 298 298 298 298 298 298 297 297 296 295 295 295 295 294 294 293
297 296 297 290 288 294 284 286 286 285 285 285 286 286 291 291 296 297 296 295 294 294 293 293 292 292 292 291 290 290 290 290 291 290 290 291 291 292 291 291 291 291 291 291 291 291 291 292 292 292 292 292 292 293 293 293 294 294 294 294 294 294 294 294 294 295 295 295 296 296 296 296 297 298 299 299 300 300 299 299 298 298 298 298 298 297 297 296 296 295 294 294 294 295 293 293 293
292 292 288 292 296 293 288 288 290 288 286 282 289 288 291 297 298 296 294 293 292 293 292 292 291 291 290 289 289 289 289 289 289 289 289 290 290 290 291 290 291 291 291 290 290 290 290 290 291 291 291 291 292 292 292 293 293 293 293 293 293 293 293 293 293 293 293 294 295 295 295 295 296 296 297 298 299 299 299 299 298 297 297 297 297 297 296 295 295 294 293 293 292 293 293 293 293
292 286 291 294 297 295 290 282 285 283 280 282 288 284 286 288 285 293 293 290 291 291 290 290 290 290 288 288 288 288 288 288 288 288 288 289 289 289 289 290 290 290 290 291 291 291 291 290 290 290 290 290 291 291 291 292 292 292 292 292 292 292 293 293 293 292 293 293 293 293 294 294 294 296 296 297 297 297 298 297 297 296 296 296 296 296 295 295 294 294 293 293 293 293 292 292 292
293 291 296 289 285 284 289 285 277 278 278 280 285 287 287 288 288 293 291 290 289 290 290 290 289 289 288 288 288 288 288 288 288 287 287 287 287 287 288 288 289 289 290 290 290 290 290 290 290 290 289 290 290 291 291 291 292 292 292 291 291 291 292 292 292 293 293 292 292 292 292 293 293 294 294 294 295 295 295 296 296 295 295 295 295 295 295 294 294 293 293 292 292 292 291 291 291
294 294 291 297 290 286 285 286 285 285 278 279 280 285 282 292 292 294 294 291 291 290 289 288 288 288 288 288 288 287 287 287 287 287 287 287 287 287 287 287 288 288 288 289 289 289 288 289 289 289 289 289 289 290 290 290 291 291 291 290 290 291 291 291 291 291 291 291 291 291 291 291 292 292 292 292 293 293 294 294 294 295 294 294 294 294 294 294 293 292 292 291 291 291 290 290 290
288 288 287 291 288 291 290 288 285 283 280 280 279 278 284 292 295 293 292 292 292 291 289 289 288 288 287 287 287 287 287 287 287 287 286 287 286 287 287 289 289 289 289 289 289 288 288 288 287 287 286 287 287 289 289 289 289 289 289 289 289 289 289 290 290 291 289 290 290 291 291 291 291 291 292 291 291 292 292 292 293 293 293 293 293 293 293 293 292 291 291 291 291 290 289 289 289
293 291 288 290 287 285 281 279 289 286 283 279 279 277 285 293 294 294 293 293 292 292 290 288 287 287 287 287 286 286 286 286 286 286 286 286 288 289 289 289 290 290 290 290 290 290 289 289 289 287 287 287 287 287 288 288 289 288 288 288 288 289 289 289 288 289 289 289 289 290 290 290 290 291 291 291 291 291 292 292 292 292 292 292 292 292 292 292 291 291 290 291 291 290 289 289 289
Wind_Speed
7 5 3 4 5 4 6 3 6 4 4 4 5 2 5 2 3 3 2 5 1 6 5 5 4 5 5 7 8 9 9 8 6 7 6 2 3 4 4 4 3 3 12 11 10 13 13 12 13 13 14 15 15 15 14 14 14 13 13 13 12 11 11 11 10 11 10 10 10 10 10 10 11 10 10 9 8 7 6 4 3 3 4 4 5 6 7 7 7 8 7 7 6 7 8 9 9
3 3 4 4 4 4 2 4 4 5 4 6 2 1 6 5 4 3 6 6 5 6 5 4 4 5 7 8 8 9 10 8 7 7 3 4 6 5 7 5 5 5 10 10 10 13 13 14 11 12 14 16 15 15 15 14 14 13 13 13 12 11 11 11 11 11 11 10 11 11 11 10 10 10 9 8 8 7 5 5 5 5 5 5 7 7 7 8 7 7 7 6 6 7 8 8 8
3 4 3 4 5 5 5 4 5 4 4 4 6 5 2 1 2 4 6 6 6 4 4 5 4 5 7 7 8 5 3 3 3 3 5 5 4 6 8 7 5 5 10 8 9 12 11 14 11 12 15 16 16 15 14 14 14 13 13 12 12 12 11 11 11 11 12 12 11 11 10 10 10 10 10 9 7 7 6 6 6 6 6 7 7 7 7 7 6 5 5 4 6 7 8 8 8
5 2 4 2 3 3 5 4 5 5 5 3 0 5 5 4 5 6 6 5 4 3 2 3 3 5 5 6 4 6 9 4 4 5 3 2 4 4 8 9 7 5 8 7 8 11 11 14 13 12 13 16 16 15 14 14 14 14 13 12 12 12 11 11 11 11 11 12 11 10 10 10 11 10 10 8 7 7 6 4 5 6 8 8 7 7 6 5 5 4 4 4 5 8 8 7 7
4 2 3 3 5 3 3 3 4 4 5 5 5 3 4 2 4 6 5 5 5 3 3 2 4 5 4 7 5 4 5 6 1 1 3 3 2 3 8 8 8 7 9 9 9 10 10 18 15 12 13 14 15 15 14 14 13 14 13 13 13 12 12 12 12 12 12 12 12 12 11 11 12 11 9 8 7 6 3 5 7 6 5 6 5 5 4 4 4 4 3 3 6 7 8 7 7
3 2 2 4 3 3 4 5 5 5 3 3 4 4 6 6 6 6 7 6 2 3 2 4 6 6 3 4 5 5 5 5 3 4 3 4 3 2 8 8 8 8 9 10 10 9 9 18 16 13 13 14 16 15 14 14 15 14 14 13 13 12 12 12 12 13 13 12 11 11 12 11 10 9 9 8 8 5 2 3 2 4 2 3 4 4 4 3 3 3 3 2 6 7 7 7 7
2 3 3 3 2 2 4 5 6 4 2 2 3 6 6 6 6 7 6 6 5 1 1 3 2 6 8 3 5 8 5 1 4 2 3 3 2 2 7 7 7 9 10 10 9 9 10 17 15 13 11 11 14 14 13 14 14 14 13 14 13 13 12 13 13 13 12 11 12 12 12 11 10 10 8 7 6 5 2 2 5 4 4 1 3 3 3 3 3 3 3 3 6 7 7 7 7
1 4 2 4 2 3 5 4 5 4 1 2 4 7 6 7 7 6 7 6 1 3 5 4 4 2 6 2 6 6 3 2 1 4 4 2 3 3 6 6 6 8 9 10 9 8 13 16 15 14 11 12 12 12 13 14 15 14 13 14 14 13 14 13 13 12 11 13 13 12 11 11 10 10 9 8 8 6 6 4 5 3 4 4 3 4 4 4 4 3 3 3 6 6 7 7 7
2 4 1 4 5 3 4 5 4 3 5 3 4 5 6 6 4 5 6 3 5 2 3 3 3 5 5 2 6 4 4 5 4 4 2 3 3 5 4 6 6 6 9 9 8 9 9 12 14 14 12 12 12 12 13 14 15 14 14 14 14 14 14 13 13 12 11 12 12 12 12 11 11 10 10 9 8 9 7 7 7 7 6 6 5 5 6 5 5 4 4 5 6 6 7 7 7
3 3 2 4 4 6 4 4 4 3 4 3 6 7 6 4 4 3 5 6 2 4 0 2 3 8 11 11 8 5 4 4 5 3 4 3 3 5 5 6 5 6 8 8 8 8 6 10 12 13 13 12 12 12 14 14 14 14 14 15 14 14 13 13 13 13 13 13 14 13 11 12 10 9 9 11 11 9 6 6 8 8 7 6 6 6 5 5 5 4 5 6 6 7 7 7 8
3 3 2 4 5 5 4 4 4 2 1 1 4 3 2 1 2 3 4 6 4 4 1 2 6 9 8 9 8 4 7 6 4 1 5 4 3 4 4 5 5 6 8 8 7 7 7 9 9 10 11 12 12 13 13 13 15 14 15 14 15 13 13 13 13 13 14 15 13 12 12 11 9 10 11 5 5 3 5 7 9 8 8 8 7 7 6 6 5 5 6 6 7 7 7 8 8
3 3 3 4 5 5 5 6 7 6 7 4 1 4 3 1 1 3 1 7 5 5 6 8 3 6 9 8 5 5 7 5 4 5 5 4 4 5 3 4 5 6 7 8 7 7 7 8 9 7 8 10 11 12 13 13 13 14 13 13 14 14 14 14 14 13 14 13 13 11 11 9 10 11 8 8 6 6 7 9 9 9 9 8 8 8 7 7 7 7 7 7 7 8 8 8 9
4 3 4 5 4 4 6 6 4 6 9 3 3 5 3 3 3 2 5 7 9 7 7 7 3 3 7 8 7 1 8 7 5 5 4 4 4 4 4 4 6 6 7 8 8 8 9 9 11 12 9 8 8 11 12 12 12 13 13 13 13 14 13 13 12 12 11 10 9 10 8 7 9 10 12 10 8 8 8 8 8 9 8 8 8 7 8 8 8 8 8 8 8 8 8 8 9
4 2 4 6 1 7 7 6 6 4 4 6 3 5 2 4 3 4 5 9 9 9 4 3 3 5 12 10 8 4 6 4 5 4 3 4 3 4 5 4 6 7 8 9 9 9 10 10 11 13 12 9 10 7 9 10 11 12 13 13 12 12 12 11 10 11 9 9 8 7 6 5 10 7 8 8 8 8 7 8 8 9 9 9 8 8 8 9 8 9 8 8 8 8 8 8 8
4 2 4 5 6 4 6 5 4 5 6 1 5 3 3 6 4 4 6 8 8 5 1 3 5 0 2 2 4 5 4 6 5 5 5 4 4 3 5 4 5 6 7 9 10 10 11 11 11 12 13 14 14 13 11 9 10 10 12 12 12 12 11 10 10 11 11 9 8 7 7 8 8 8 7 8 7 6 5 4 7 10 9 9 9 9 9 9 9 9 9 9 9 8 8 8 8
4 3 4 6 7 4 1 4 2 5 4 2 6 1 3 7 6 6 4 3 9 7 2 6 8 8 9 11 11 4 7 6 6 6 6 6 4 3 4 5 6 7 7 9 10 10 11 12 11 11 13 14 14 13 13 14 11 11 10 11 11 11 11 11 10 10 11 10 9 9 10 9 8 7 10 7 8 6 6 6 7 7 10 10 10 10 9 10 10 10 9 9 9 9 9 8 8
3 3 5 6 8 6 2 4 1 5 4 5 8 4 6 7 6 5 2 4 10 13 10 10 10 9 15 14 8 7 8 7 7 8 7 6 5 4 4 5 5 6 6 10 10 10 12 13 14 11 13 15 15 14 13 13 13 13 9 10 11 11 10 10 10 9 10 9 9 10 11 9 8 7 7 8 8 7 8 8 7 7 10 10 10 10 10 10 10 10 10 10 10 10 10 9 8
3 5 6 7 7 9 4 6 6 3 7 9 6 1 6 11 4 4 3 9 12 14 14 13 13 15 15 14 11 4 8 8 8 7 7 6 6 6 6 7 7 8 9 8 11 11 11 12 14 14 11 15 15 13 11 10 9 13 13 11 9 9 9 9 8 8 8 8 9 9 8 8 8 8 8 8 8 9 8 9 7 7 11 8 9 11 11 11 11 11 11 11 11 11 10 5 5
6 6 7 9 7 7 3 7 8 9 9 9 9 8 8 11 8 6 8 10 10 13 14 13 14 16 16 16 15 9 8 7 8 8 9 10 8 10 8 7 9 8 9 9 9 14 12 12 14 16 15 14 15 14 10 10 13 9 13 14 11 11 10 10 10 10 10 11 9 9 9 9 9 9 9 9 8 11 10 10 8 6 9 8 9 10 11 11 11 11 11 11 10 9 5 3 4
8 7 9 9 9 11 7 7 11 9 10 11 10 10 10 10 10 6 9 12 11 14 13 13 13 13 11 13 12 13 12 10 10 10 11 12 12 11 10 10 10 11 11 10 10 10 13 12 15 15 16 15 14 12 11 11 11 12 11 14 14 11 11 10 12 13 13 13 10 9 9 9 9 8 6 11 8 9 8 11 10 8 8 10 9 7 9 9 10 10 9 10 7 4 3 3 4
4 8 9 8 6 7 7 7 9 10 9 10 11 11 13 12 11 8 7 10 11 14 13 15 15 13 12 11 12 10 9 10 10 11 12 12 13 11 11 11 9 9 9 9 8 10 14 14 13 14 14 14 14 12 13 13 12 11 11 12 13 11 11 12 12 14 12 13 13 10 11 9 9 8 7 7 9 8 8 9 8 8 8 8 9 8 7 7 7 6 5 5 4 4 3 3 3
4 10 11 13 11 9 10 11 10 6 3 8 11 12 13 9 6 11 12 14 11 11 11 13 17 18 16 15 13 10 9 10 11 12 13 13 14 14 12 11 10 8 7 9 10 10 13 14 13 12 14 14 15 13 13 11 12 12 12 13 11 11 11 11 11 12 12 13 11 11 10 11 10 10 8 9 9 9 8 9 9 9 9 9 10 8 8 8 7 6 5 6 4 4 3 3 2
9 11 13 15 14 15 10 11 2 1 9 10 11 10 11 11 14 13 14 17 16 16 15 17 19 19 17 14 12 10 11 13 14 14 14 14 14 14 13 11 9 9 7 9 8 9 11 13 14 12 12 13 15 14 12 11 12 11 12 12 11 11 10 11 11 11 11 12 12 11 11 11 12 10 8 9 10 8 8 9 9 9 9 9 10 8 8 8 7 6 6 5 4 4 3 3 2
9 13 11 12 8 12 11 12 1 5 10 14 12 12 15 14 17 13 15 15 16 17 17 18 19 19 16 14 12 12 13 14 14 15 14 14 14 14 12 12 10 8 8 8 9 9 9 13 14 14 12 12 12 14 13 12 11 12 13 11 11 11 11 11 11 11 11 11 11 12 12 11 12 10 9 9 10 9 9 9 9 9 9 9 9 8 8 7 6 6 5 5 5 4 4 4 3
10 12 11 12 9 10 11 11 12 11 12 12 12 14 18 16 16 17 22 18 18 18 17 17 17 16 14 13 13 13 13 14 15 15 13 11 11 11 9 8 10 9 10 10 9 11 12 12 14 16 14 14 12 13 14 12 11 12 12 11 12 10 11 11 11 11 11 11 12 12 12 12 12 10 9 9 9 9 8 9 9 9 8 8 9 7 7 7 6 6 6 5 5 5 4 4 3
11 14 12 12 11 10 10 12 12 12 9 9 11 16 18 17 16 19 22 21 19 17 17 15 14 13 14 13 13 13 13 14 13 14 13 10 10 11 10 10 9 11 13 12 11 11 12 13 16 17 16 14 13 12 12 12 12 12 12 12 11 11 12 11 12 11 11 11 11 13 12 13 10 9 9 9 9 9 9 9 8 8 8 8 8 7 7 6 6 5 5 5 5 5 5 4 4
5 8 9 12 14 15 14 17 17 15 14 11 11 15 17 14 4 12 9 9 2 5 8 10 11 14 14 13 12 12 13 14 14 13 11 8 8 9 10 10 11 12 11 13 12 11 11 14 15 16 17 15 13 13 12 13 12 12 11 11 11 12 12 11 10 10 10 11 11 13 16 14 9 9 9 9 9 9 8 9 8 8 8 7 7 6 6 6 5 5 6 6 5 5 4 4 4
9 10 13 16 17 17 17 17 18 11 12 10 13 15 16 15 11 16 16 14 11 10 11 11 11 14 15 16 15 13 13 13 11 11 13 11 8 8 10 9 11 12 12 13 12 11 11 15 15 15 16 15 14 14 12 12 12 12 11 11 11 11 12 11 10 10 10 10 12 13 14 12 10 9 10 10 9 9 9 9 8 8 8 7 7 6 6 5 5 4 5 4 5 4 5 4 4
8 7 12 15 15 15 17 17 17 12 9 5 4 9 14 14 13 19 18 15 13 13 13 13 14 14 15 14 13 12 13 13 11 11 10 10 10 9 11 10 11 11 10 12 12 11 13 12 13 14 15 15 16 15 13 12 11 11 11 11 10 10 11 11 11 11 10 10 11 11 11 12 11 10 9 10 9 9 9 8 8 8 7 7 7 7 7 5 5 5 5 4 4 4 5 4 3
8 11 12 15 13 13 14 9 3 5 4 6 5 8 5 11 13 12 12 8 7 10 14 16 15 16 15 15 13 14 14 14 14 12 10 9 8 9 11 12 12 11 9 7 9 11 9 7 8 9 13 15 15 14 13 11 12 11 10 10 10 10 10 11 11 10 10 10 10 10 11 12 11 10 9 10 9 8 8 8 9 8 7 7 7 7 7 6 6 6 6 5 5 5 5 5 5
8 10 4 8 11 9 1 4 7 6 7 9 8 11 8 12 16 12 6 2 8 11 16 20 18 17 15 13 13 14 14 12 13 13 10 11 11 9 10 11 11 11 9 8 8 10 11 9 7 8 10 14 13 14 14 12 10 10 9 10 10 10 10 10 10 10 10 9 9 9 11 11 11 11 10 9 9 9 8 8 9 7 7 7 7 6 7 6 5 6 6 6 5 4 4 4 5
9 8 8 7 9 7 9 5 10 9 5 8 8 10 8 8 10 10 10 9 7 12 16 20 18 16 16 14 14 13 13 12 11 10 9 10 8 8 9 11 10 9 10 9 8 7 9 10 9 9 9 12 11 12 12 11 10 10 9 9 9 10 9 9 9 9 9 9 9 8 11 11 11 12 10 9 9 9 8 8 8 7 8 7 6 7 7 7 7 6 6 6 6 5 6 5 4
10 11 11 11 10 11 11 6 4 10 3 9 11 11 12 12 11 14 16 17 18 18 20 21 20 19 17 14 11 11 12 12 8 8 8 7 7 8 9 10 8 8 8 8 8 7 8 9 9 10 10 10 11 11 11 10 9 9 9 8 9 8 9 9 9 8 9 8 8 8 10 11 10 11 10 9 8 9 8 8 8 8 8 8 7 7 7 6 7 6 7 6 5 6 6 6 5
9 9 10 9 12 11 9 8 12 3 5 7 12 11 11 13 14 16 18 16 16 16 20 20 17 16 16 13 12 12 11 9 8 6 8 10 9 11 10 10 10 9 8 7 6 6 6 6 7 7 7 7 8 9 9 9 8 8 7 7 8 8 8 8 8 8 8 8 8 8 9 10 10 11 10 9 8 8 8 7 7 8 8 7 7 7 7 7 7 7 7 6 7 6 6 7 6
11 12 12 12 12 12 16 13 3 5 8 11 11 15 18 16 14 14 15 17 17 18 19 17 15 16 15 13 10 9 7 7 6 9 11 11 12 11 10 10 9 7 6 6 4 3 3 3 3 5 6 7 7 8 7 8 8 7 7 7 7 8 7 7 7 8 7 7 8 8 8 9 9 11 10 9 9 8 8 7 7 8 8 7 7 7 7 7 7 8 8 8 6 6 6 6 6
16 15 12 14 14 13 12 13 14 16 16 13 14 15 15 14 15 14 15 17 18 20 19 14 15 15 13 10 5 4 6 7 9 9 10 11 11 11 10 10 10 8 7 6 5 3 2 2 1 2 4 5 5 5 5 6 6 7 7 7 7 7 7 7 7 7 7 7 7 7 7 8 9 9 10 9 9 8 8 7 7 7 7 7 7 8 8 8 9 10 8 9 8 5 4 6 6
16 11 13 14 14 15 14 15 13 9 6 10 11 15 16 14 14 15 17 18 19 19 16 15 14 12 9 4 4 6 7 8 7 12 13 14 14 13 12 12 12 12 12 11 9 7 4 2 1 1 1 3 4 5 5 6 6 6 6 7 7 6 7 7 7 7 7 6 7 7 7 8 8 9 9 9 9 8 7 7 7 7 7 8 8 9 8 8 8 8 7 7 9 7 6 6 7
14 14 13 14 12 15 14 15 14 10 3 9 12 14 15 17 18 20 19 15 18 16 15 15 12 8 5 4 7 7 8 9 13 13 14 14 15 16 13 12 13 14 13 13 12 10 8 6 4 2 2 3 4 4 4 4 5 5 5 5 5 5 5 6 6 6 6 5 6 6 6 8 8 9 9 9 9 9 9 8 7 8 8 8 8 8 8 7 9 8 7 7 6 8 7 8 8
14 11 11 12 12 14 15 16 9 3 4 10 11 15 14 17 20 20 16 12 11 13 15 11 8 6 4 5 7 9 11 11 13 14 14 14 16 17 14 13 13 13 13 13 12 12 11 9 7 4 2 1 1 3 3 3 3 4 4 3 3 3 3 3 3 3 4 5 4 4 5 6 7 7 8 9 9 10 10 9 8 8 9 8 8 9 9 9 9 10 10 9 8 6 5 6 9
10 9 10 11 10 10 9 3 6 4 2 10 12 15 13 15 18 16 11 6 9 13 10 7 9 7 8 10 10 11 12 12 14 15 15 15 15 15 15 15 14 12 12 13 13 13 10 10 9 8 5 3 2 1 2 2 2 2 2 2 1 2 1 1 1 1 2 3 5 5 5 6 7 7 8 8 7 8 10 10 8 9 10 10 9 10 10 11 10 10 10 10 9 8 7 8 9
9 11 10 12 13 11 11 11 12 12 14 8 8 11 10 8 4 2 5 6 12 7 10 12 11 9 11 12 14 14 13 13 13 15 16 16 17 17 16 14 13 13 13 13 13 12 9 12 11 9 7 7 5 5 2 2 0 1 2 2 1 1 0 1 2 4 4 5 5 5 6 7 7 8 8 10 9 9 9 9 8 8 9 10 9 9 10 11 11 11 13 11 12 10 9 7 8
10 11 13 15 13 15 13 12 10 7 6 7 9 10 5 2 6 12 7 9 9 10 13 14 14 12 12 14 13 12 12 14 15 14 14 14 14 14 15 16 16 15 15 14 12 12 12 12 12 11 9 9 9 7 5 3 2 2 2 2 3 3 4 4 5 5 5 5 6 6 6 7 8 8 8 9 9 9 10 10 9 8 8 8 9 10 9 9 11 12 13 12 13 12 10 8 8
8 6 2 5 8 9 10 10 5 6 6 1 6 6 11 5 10 5 5 12 4 12 14 13 12 12 12 12 11 11 12 12 13 14 13 14 15 15 17 17 16 16 15 13 11 11 14 14 14 12 10 9 9 8 7 5 3 3 3 3 4 4 4 3 3 3 3 3 3 5 5 6 8 8 9 9 9 9 10 9 9 9 8 8 9 10 10 11 10 12 11 12 12 12 10 10 12
8 5 3 3 6 7 6 4 5 9 8 12 7 8 8 11 7 6 10 11 6 12 13 12 11 12 11 11 12 11 12 12 11 13 14 13 14 15 16 16 15 14 11 10 10 11 15 17 16 14 11 11 10 9 8 7 6 5 4 4 4 4 4 5 5 3 2 2 2 3 4 4 6 7 8 8 9 10 10 10 10 9 9 9 9 10 10 9 7 9 11 13 10 12 13 11 11
3 4 6 5 5 6 4 6 7 7 10 9 6 8 5 6 2 5 8 3 6 10 12 11 11 10 10 12 11 11 11 12 13 12 14 14 14 14 12 13 13 12 11 11 11 12 14 15 15 14 13 12 12 13 10 8 7 6 6 5 5 5 5 4 5 4 3 2 3 3 4 4 5 7 8 8 8 9 9 10 10 10 10 10 9 9 10 9 10 10 11 12 12 11 11 11 10
3 1 2 0 2 2 6 6 8 8 7 12 5 10 5 10 5 4 2 2 7 10 12 11 11 9 8 9 11 11 9 10 11 12 11 11 11 11 11 11 14 13 11 10 10 12 15 14 16 16 15 12 12 13 12 11 9 7 6 6 6 6 6 6 5 5 4 3 3 3 4 4 4 5 7 8 8 9 10 10 9 10 10 10 9 10 11 11 10 11 13 13 13 12 10 12 12
2 0 4 6 6 7 6 6 6 6 10 9 8 14 7 7 3 2 2 1 1 10 9 11 11 10 10 10 10 8 8 10 10 11 11 10 10 11 12 14 12 11 9 11 13 15 15 15 15 17 16 13 14 13 13 12 10 9 8 8 7 7 7 6 6 6 6 6 5 5 4 4 5 5 5 7 9 9 9 9 9 10 9 9 9 9 11 11 9 9 10 12 13 13 11 11 11
1 3 4 6 8 6 4 4 4 5 11 3 3 10 11 5 2 1 4 7 7 2 11 12 12 10 8 8 8 9 9 9 10 10 10 10 10 11 10 10 10 11 13 14 14 15 15 15 15 16 16 16 14 14 14 13 11 11 10 9 8 8 7 6 7 7 7 8 7 6 5 4 5 5 6 6 7 9 8 8 9 9 9 10 10 9 9 10 8 8 8 9 11 13 12 11 11
4 4 4 5 6 5 7 4 5 6 8 3 3 4 6 12 11 12 5 7 8 4 7 11 13 12 11 10 9 7 7 9 10 9 9 9 9 9 10 10 10 13 14 16 16 14 13 14 15 15 16 15 14 13 14 13 13 12 11 11 9 8 8 8 7 7 7 7 7 7 7 6 5 5 5 6 7 8 8 8 9 9 9 10 10 9 9 11 10 9 10 11 13 13 14 14 12
6 5 4 3 7 7 11 8 8 11 1 3 3 2 9 10 11 13 15 7 9 11 12 11 12 12 11 10 8 7 8 9 9 9 8 8 9 9 9 9 10 12 14 14 13 13 12 12 13 13 13 13 12 12 12 12 12 11 11 10 9 8 8 7 7 7 7 7 7 8 7 7 7 7 7 7 7 7 8 8 8 9 9 9 9 10 10 10 10 10 10 11 13 13 13 15 14
9 6 6 6 7 5 9 5 10 9 9 2 4 1 4 4 5 9 11 14 12 11 12 14 12 11 11 9 8 9 9 9 8 8 9 9 9 8 7 8 10 12 13 12 11 11 10 11 11 13 13 13 13 12 11 12 10 10 10 9 8 8 7 7 7 7 7 8 8 8 8 8 8 8 8 8 7 7 7 8 8 9 9 9 9 9 8 10 10 10 10 11 10 11 12 13 13
5 3 1 3 7 4 10 6 8 7 9 8 3 5 4 8 8 8 11 13 13 12 13 11 10 9 8 8 8 8 8 7 7 7 7 8 7 6 7 9 10 11 12 11 13 11 11 11 11 11 12 11 11 11 11 10 10 9 10 10 9 8 7 6 6 6 7 7 7 7 8 8 8 9 9 8 8 7 6 7 8 9 9 9 9 9 9 9 9 10 10 10 12 9 11 13 13
3 3 4 4 5 4 6 5 9 8 8 14 7 12 13 9 11 12 13 12 11 9 10 9 9 8 8 8 7 7 6 6 6 6 5 6 7 8 9 11 11 11 11 11 11 10 10 10 10 12 12 12 12 11 10 9 8 9 10 10 10 9 9 8 7 7 7 7 6 7 7 8 8 8 8 8 9 8 7 7 7 8 9 9 9 9 9 8 9 9 10 11 11 10 11 13 12
5 3 1 2 2 3 3 11 8 10 13 10 6 13 13 8 7 8 8 11 8 8 8 9 8 7 7 7 6 5 5 5 5 5 5 7 8 10 11 10 11 11 10 9 9 8 8 8 10 11 11 12 12 11 11 10 11 10 10 10 10 9 8 7 8 7 6 6 6 7 7 7 8 8 8 8 8 9 8 8 6 6 6 7 8 8 8 8 8 9 10 11 11 9 11 11 12
4 1 4 2 4 7 7 3 7 11 13 11 12 16 15 15 15 5 11 11 10 7 7 6 7 6 6 6 6 5 4 4 4 6 6 8 9 9 9 9 9 9 9 8 7 7 7 7 8 8 8 8 8 7 8 7 8 7 7 9 9 9 9 8 8 8 7 7 7 7 6 6 6 7 7 7 7 7 7 7 6 7 7 7 7 8 8 8 8 9 9 9 10 10 11 12 12
2 1 3 1 2 5 9 6 2 3 12 9 9 10 11 9 9 7 4 13 10 9 7 5 5 5 4 4 4 4 4 4 4 5 6 6 6 6 6 7 7 7 6 6 5 5 7 8 8 8 7 7 7 6 5 6 6 6 6 6 6 7 7 8 8 9 9 9 9 9 8 7 7 6 6 6 6 6 7 8 7 7 7 7 7 8 8 8 8 9 9 9 9 11 12 13 11
4 5 7 4 3 2 3 3 4 6 10 9 10 13 9 6 6 4 8 8 9 8 7 6 5 5 4 4 3 2 3 3 3 3 3 2 2 2 3 1 2 2 1 2 2 3 4 4 4 4 4 5 6 6 5 5 5 6 7 8 7 6 8 8 9 8 8 7 7 7 8 7 7 7 7 7 7 7 7 7 7 7 7 7 7 7 7 8 9 9 9 10 10 11 13 12 12
9 6 7 7 6 5 8 10 6 5 8 10 10 14 7 2 5 4 7 7 7 8 8 7 6 4 4 4 3 3 3 3 3 3 2 2 1 1 1 1 1 1 1 1 2 1 2 2 2 3 3 5 6 7 7 7 6 6 6 7 7 7 8 8 9 8 8 7 7 7 7 8 7 7 7 7 7 6 7 7 7 7 7 7 8 8 8 7 8 9 10 8 9 11 12 13 12
Wind_Direction
269 231 288 279 270 273 293 250 278 163 237 266 284 306 73 21 34 294 39 7 17 58 17 337 296 276 282 348 323 319 308 299 326 303 353 79 142 135 173 133 154 164 158 162 148 155 167 175 176 178 178 176 177 179 178 178 177 175 173 174 174 176 177 178 180 182 183 183 185 185 186 184 183 179 176 168 157 148 143 151 166 186 172 166 160 133 127 113 104 98 95 99 101 88 84 84 81
273 300 262 262 268 282 205 346 278 269 239 263 137 312 62 53 243 25 10 3 17 349 347 313 300 277 267 283 291 294 274 233 275 310 9 114 147 151 160 151 156 168 165 163 152 160 169 172 179 179 181 179 180 183 182 180 183 179 179 178 176 180 184 182 184 187 188 187 189 190 190 187 182 179 165 159 147 138 146 163 173 185 170 163 137 138 119 105 98 96 99 105 92 84 77 75 75
314 297 246 229 241 255 298 238 281 318 308 291 79 54 76 203 353 11 0 351 352 337 322 294 287 259 253 244 270 265 10 343 296 289 299 126 246 119 153 153 152 175 167 165 160 163 168 170 178 181 182 183 183 184 183 181 184 183 184 181 181 185 187 185 189 189 189 193 193 193 185 180 177 165 156 156 148 135 154 166 177 180 157 127 126 122 110 101 102 106 112 116 102 92 86 78 75
281 289 288 249 253 205 266 225 259 294 295 337 5 70 56 345 347 345 343 13 331 309 291 268 266 111 264 254 317 317 254 297 34 339 293 114 41 131 157 157 149 171 163 171 171 166 175 159 173 180 185 186 186 187 186 184 186 184 185 186 186 190 191 188 192 192 192 196 192 190 177 173 164 157 162 151 143 143 159 166 170 153 145 147 135 113 102 105 113 115 129 122 109 99 93 89 83
261 229 264 270 281 247 293 301 302 304 273 15 334 60 56 2 325 336 340 340 304 296 258 267 265 154 271 290 318 289 24 323 154 53 307 72 84 109 151 157 162 169 169 176 176 167 179 151 169 177 182 190 188 187 189 189 192 186 188 188 189 190 195 191 194 197 195 197 188 178 172 166 164 162 154 148 141 135 124 155 146 152 170 148 143 138 134 128 130 134 137 134 109 103 99 98 91
244 236 186 256 282 12 262 250 219 226 301 349 294 338 353 356 336 349 319 316 346 291 275 254 280 324 218 219 219 248 16 318 29 268 296 75 65 75 157 161 173 174 169 176 177 171 168 150 161 176 186 190 190 190 192 193 194 193 192 194 193 194 198 196 199 201 196 194 184 179 169 167 162 156 151 153 153 134 122 13 259 180 116 211 165 159 158 152 158 150 150 149 115 109 105 99 98
245 210 169 209 199 229 274 285 294 315 38 40 304 309 328 327 342 327 316 316 118 231 197 249 337 276 257 214 207 242 263 65 285 49 21 94 81 165 153 178 176 180 169 174 179 178 152 154 157 172 189 191 191 190 190 195 195 194 195 197 197 197 201 201 203 203 199 186 182 177 170 167 162 161 158 159 157 149 155 285 322 237 192 164 196 203 183 188 182 172 176 175 116 108 105 103 98
283 278 115 247 196 211 238 262 282 284 37 20 330 298 302 325 331 319 314 307 92 292 157 252 251 296 296 99 300 113 114 196 127 116 120 140 109 161 170 187 185 181 174 175 177 179 127 154 161 173 186 192 196 189 187 194 197 196 198 199 199 200 202 203 204 202 194 187 183 177 173 166 163 166 164 164 163 170 182 216 261 252 256 197 195 221 228 204 192 186 175 158 111 107 104 101 98
209 260 75 259 246 194 269 263 290 265 284 282 285 272 274 289 318 312 297 297 282 232 276 244 210 269 80 296 265 135 146 132 136 108 118 127 161 163 180 199 191 182 175 177 175 182 144 152 164 170 185 191 193 190 190 193 198 199 199 199 200 202 203 202 203 195 191 187 182 177 183 174 180 181 170 185 187 185 182 200 215 225 222 209 214 230 225 213 192 184 182 137 115 108 104 100 96
188 266 193 267 324 269 261 246 244 67 319 342 299 305 309 310 295 291 304 289 24 308 97 8 260 245 300 301 299 257 131 141 134 161 187 170 180 175 184 195 201 183 175 179 182 182 160 153 164 176 184 187 191 189 190 192 197 199 198 199 200 202 202 202 201 193 185 187 185 187 183 180 182 188 191 196 208 211 169 200 213 223 224 225 213 219 202 205 204 184 157 129 118 110 104 99 95
221 188 325 268 236 268 277 331 344 305 271 290 279 292 14 25 318 288 281 302 283 299 146 186 239 245 264 279 283 93 116 136 154 156 161 166 179 180 196 186 194 185 181 183 182 184 169 161 167 182 187 187 187 185 185 188 196 198 198 199 200 199 194 195 198 194 187 190 194 194 190 194 191 182 212 180 192 185 211 214 216 211 219 211 203 200 199 203 198 167 143 129 120 115 109 103 98
238 212 183 272 287 309 328 322 316 299 308 285 220 104 101 92 269 263 266 295 327 290 281 157 350 353 293 282 277 140 131 132 140 94 127 150 182 182 213 174 191 189 186 181 184 191 189 169 173 182 198 192 189 183 184 188 193 194 193 194 196 196 194 193 193 194 192 195 195 197 202 215 199 198 159 162 181 192 198 217 216 212 210 209 205 203 199 197 171 152 137 128 125 121 116 109 101
282 340 256 269 291 301 325 290 293 320 282 157 110 121 114 209 248 298 314 307 292 293 295 164 349 290 279 292 311 224 161 112 100 108 130 168 169 169 195 193 188 190 187 188 189 192 193 184 189 192 193 195 193 192 188 191 192 188 190 192 191 190 190 193 193 194 197 201 197 196 206 218 186 200 160 180 187 199 200 215 219 218 215 212 211 200 197 185 166 146 136 133 132 127 120 112 106
269 295 305 283 29 273 275 291 285 281 313 94 89 129 191 242 228 297 307 288 296 300 47 10 297 308 277 272 266 232 95 98 113 120 139 149 147 167 186 196 184 199 192 192 196 194 192 193 189 195 195 194 197 190 203 200 198 192 189 192 192 191 193 195 196 196 204 202 196 198 208 187 182 194 163 158 180 200 201 213 217 219 213 209 205 195 186 170 156 143 142 140 136 128 120 113 106
269 340 271 268 282 269 250 260 334 318 288 44 116 169 196 220 249 233 273 294 298 69 85 239 266 224 315 280 301 59 116 125 124 125 132 141 148 176 184 198 193 204 201 199 200 197 197 197 194 194 192 203 205 205 202 200 210 207 201 197 194 196 198 200 198 198 200 195 194 192 160 142 144 139 139 153 172 178 184 198 218 213 209 204 195 186 179 162 151 147 146 143 135 129 123 114 108
284 279 248 273 272 259 215 238 235 271 277 9 121 143 253 282 193 230 237 266 291 293 223 271 183 236 280 286 290 80 125 139 136 143 143 149 159 173 191 211 215 207 211 207 205 204 201 197 200 196 198 201 207 208 208 209 201 214 211 206 204 203 202 198 197 198 198 189 179 154 139 131 133 134 135 139 149 163 178 206 197 218 203 198 188 185 177 163 152 150 148 144 138 131 120 110 105
255 262 257 240 259 235 216 268 198 273 1 331 135 188 280 303 147 250 82 268 273 275 256 239 233 225 251 255 278 133 136 131 144 146 154 167 175 194 196 208 215 212 208 210 209 204 205 203 201 201 200 200 202 208 211 209 201 197 212 213 209 208 207 201 197 193 186 177 160 148 146 160 168 153 153 174 143 179 178 198 183 211 200 194 186 185 175 166 155 153 151 145 139 126 110 101 99
207 225 241 254 259 265 272 267 283 305 293 301 271 295 289 290 248 190 167 239 242 265 266 266 245 243 245 255 264 143 149 158 167 172 192 199 192 202 200 204 200 211 202 206 209 208 202 205 202 203 201 203 203 208 211 210 208 184 207 210 207 205 207 202 194 197 182 184 160 153 176 187 189 183 179 185 180 189 174 183 181 196 198 182 178 182 177 168 159 157 153 148 136 123 128 127 106
215 249 256 262 270 303 331 286 286 292 283 298 296 288 269 273 289 282 277 275 278 279 269 262 254 242 246 251 248 224 185 197 188 214 224 218 213 218 211 197 203 209 205 206 206 205 205 201 203 203 203 201 204 206 205 211 214 191 203 213 210 206 206 198 208 202 200 200 179 182 194 203 201 203 203 185 201 183 183 169 177 190 197 162 171 179 180 166 161 159 152 142 136 146 183 152 142
227 259 260 260 259 268 266 283 285 280 291 285 292 292 288 276 282 285 259 277 280 268 276 279 273 276 249 242 239 235 236 221 216 222 233 234 232 232 229 217 203 207 209 202 204 202 204 204 203 205 204 202 202 204 205 209 212 213 209 213 215 206 208 203 212 213 214 214 198 197 201 204 198 204 166 161 172 174 164 165 170 184 166 142 155 164 168 163 159 149 138 135 142 190 190 172 145
198 224 243 264 307 297 269 279 277 280 288 288 287 294 282 277 277 261 251 275 263 264 257 260 276 285 297 303 307 298 259 227 228 224 234 239 239 237 240 236 223 208 208 203 202 200 202 206 203 206 205 204 202 204 206 207 208 213 210 207 208 202 202 205 209 214 212 212 212 209 212 199 196 199 162 166 184 184 175 179 176 182 174 168 154 184 177 164 162 157 148 169 190 190 190 177 166
288 239 253 269 275 257 272 282 298 290 339 285 280 279 277 302 270 250 252 256 262 270 295 302 295 295 298 298 299 296 271 245 248 245 236 235 237 239 238 242 243 234 199 204 203 201 202 206 205 202 204 205 204 205 205 207 206 211 210 208 201 203 199 201 203 205 208 208 208 208 207 208 199 202 180 182 188 186 180 181 182 184 181 183 175 189 184 170 182 172 174 189 192 184 184 173 178
250 249 246 252 261 275 287 289 316 269 279 274 277 277 295 280 279 272 264 252 259 267 281 284 285 289 292 292 286 272 260 255 258 256 249 245 241 241 242 243 242 233 213 212 207 209 204 205 206 205 204 204 207 206 207 206 208 212 212 206 199 200 199 198 199 201 204 199 202 202 206 205 204 198 179 185 190 190 186 183 183 184 182 183 182 190 184 173 184 174 178 186 184 173 168 156 142
249 270 280 284 280 268 281 285 263 257 267 270 279 292 280 280 278 285 274 269 265 270 267 271 278 284 285 282 274 264 255 256 258 258 253 250 248 245 239 241 242 241 228 218 212 211 206 205 203 202 205 203 205 206 208 208 209 209 212 201 200 199 198 198 199 200 198 198 197 202 204 204 201 193 183 185 188 192 189 184 183 184 183 185 181 193 177 176 179 175 177 177 170 164 162 158 152
241 259 259 265 271 277 280 278 273 265 260 269 275 273 266 268 273 289 277 275 274 269 269 268 270 274 280 275 269 265 261 259 258 257 253 248 248 249 244 238 237 235 236 226 215 211 208 201 201 204 203 205 203 201 207 208 205 207 207 204 202 196 201 201 199 196 197 196 196 201 202 201 201 192 185 186 185 192 187 186 185 187 183 182 180 184 175 175 178 174 173 172 170 168 159 163 152
243 250 277 294 283 275 273 277 267 254 260 258 263 263 268 271 282 268 269 273 269 263 258 264 272 273 277 274 268 267 264 259 255 258 256 251 243 243 238 230 229 227 227 228 218 213 208 200 199 200 201 204 202 200 204 206 207 205 205 205 202 193 203 202 198 198 197 193 196 203 199 203 194 188 184 185 187 189 187 186 187 183 181 181 181 181 176 177 176 172 171 172 173 167 166 161 155
35 297 296 287 284 285 275 269 268 260 259 252 247 267 275 283 267 273 256 273 301 265 262 269 276 281 281 278 272 262 260 254 249 253 257 246 241 233 231 224 222 228 227 227 221 216 206 202 203 200 200 196 198 202 203 207 207 207 202 204 202 199 198 200 200 200 197 197 196 199 204 201 189 187 185 185 186 186 189 186 188 183 182 179 178 175 173 177 175 175 173 172 172 170 166 152 165
299 306 302 281 276 270 268 262 259 257 263 248 245 258 275 275 252 254 272 271 264 266 275 276 278 281 284 283 278 275 265 259 252 245 247 248 242 229 227 220 221 220 218 221 220 216 207 204 202 201 200 197 199 202 201 207 207 207 203 204 204 200 195 198 199 199 198 197 197 198 197 191 189 187 186 184 185 184 188 186 186 185 183 176 177 173 165 174 173 171 166 174 170 169 153 157 161
292 303 290 285 284 279 268 260 260 245 238 123 222 262 265 256 232 242 248 261 266 273 283 290 290 285 282 280 277 272 269 267 268 264 257 253 250 244 250 240 237 230 220 218 215 211 214 205 204 203 200 198 198 201 201 202 203 204 204 204 204 198 197 198 199 199 196 194 193 188 188 189 189 189 187 184 183 184 185 182 186 187 183 174 174 165 156 161 163 155 156 161 165 161 150 148 151
288 266 264 286 285 276 276 256 186 162 214 136 169 279 267 284 276 272 273 288 287 286 292 295 293 287 283 281 279 276 274 274 272 272 275 272 262 251 254 258 257 251 245 233 218 216 208 207 201 201 199 201 200 204 203 201 201 202 199 201 202 198 197 198 200 199 196 195 191 186 184 188 190 191 187 183 179 183 182 183 186 184 184 171 167 155 160 167 167 163 161 169 169 166 161 154 161
260 282 259 265 290 276 153 211 146 247 136 174 205 265 278 278 284 294 320 353 293 289 291 290 288 286 285 280 276 277 277 273 274 281 288 285 284 275 257 266 267 264 254 245 232 214 209 202 193 203 193 204 197 204 205 206 201 199 197 199 198 197 198 201 201 199 199 196 190 184 183 185 187 189 188 180 180 185 183 183 186 182 177 166 162 164 168 173 173 170 165 178 167 178 165 160 169
262 278 247 237 239 266 283 208 178 254 143 217 188 262 267 273 284 302 303 298 283 281 285 284 284 286 285 285 282 280 283 287 294 301 295 292 300 294 283 277 278 274 266 255 242 223 223 215 194 202 197 203 205 205 206 207 206 206 205 201 203 197 199 203 201 202 201 197 195 187 182 183 183 187 188 183 180 189 188 184 184 181 168 163 168 166 175 175 177 172 173 176 165 178 163 160 169
244 237 265 269 271 287 298 285 245 256 122 196 204 274 292 281 293 300 299 294 291 287 282 280 283 283 284 287 291 289 288 294 302 304 306 320 317 313 311 304 294 294 286 272 260 238 229 225 203 205 205 202 208 205 207 210 211 210 210 208 207 200 202 202 204 203 203 201 198 192 180 179 178 184 186 183 181 188 190 189 185 179 164 169 170 168 179 178 172 169 170 182 177 169 165 160 165
260 234 245 255 278 294 282 303 293 108 198 259 214 246 259 278 286 286 287 286 283 276 275 276 282 284 286 287 289 290 300 312 315 324 341 345 339 338 334 336 331 329 322 303 277 264 251 240 218 202 210 209 211 210 205 206 210 212 215 214 211 209 206 207 206 204 206 203 200 198 178 179 177 183 183 180 184 185 192 191 186 171 160 169 170 169 181 178 173 172 167 178 182 168 167 166 166
299 301 293 289 290 295 297 298 300 227 216 253 275 268 281 291 297 292 291 295 288 275 267 275 283 286 284 287 291 304 316 327 346 3 5 6 4 0 354 355 350 343 338 333 323 302 266 259 225 190 196 207 209 211 205 203 206 209 211 211 209 213 209 209 209 208 206 204 204 196 179 177 173 182 181 177 183 185 191 190 184 166 162 171 170 170 179 182 174 178 171 169 179 177 167 164 162
284 294 293 294 291 289 288 287 292 295 300 299 290 285 296 302 299 290 286 280 277 276 281 291 286 277 281 293 324 344 345 352 25 17 25 21 19 12 11 9 4 2 4 10 11 8 345 315 263 171 193 206 204 206 198 202 205 208 208 206 212 211 212 209 210 214 209 209 201 193 181 176 173 179 180 178 183 186 189 190 185 157 165 173 176 177 184 184 177 176 177 165 162 157 162 156 145
286 288 277 276 277 277 276 275 286 303 341 283 293 295 297 298 292 289 279 274 277 278 287 281 272 280 293 9 10 353 10 29 36 46 42 33 27 22 23 20 16 20 18 17 20 19 21 13 111 219 165 192 196 194 198 199 204 210 216 219 221 212 212 210 209 212 212 210 200 194 181 179 174 175 178 179 189 189 192 189 182 161 169 178 185 189 188 186 177 176 164 165 159 147 158 157 146
280 281 279 276 273 277 274 288 297 314 314 290 291 294 301 304 296 283 277 279 276 283 277 267 275 305 354 13 358 30 46 58 52 45 35 33 27 23 22 21 19 20 18 18 19 17 15 10 7 24 145 174 198 202 201 206 217 220 223 227 229 230 216 211 218 214 217 214 205 195 187 181 176 175 177 184 185 188 192 193 185 166 174 186 192 188 185 179 175 176 161 155 177 166 163 164 159
272 269 275 281 275 277 286 278 285 20 301 283 305 304 297 287 280 281 287 284 278 272 260 275 312 350 4 31 44 60 61 58 48 37 31 28 26 24 24 20 20 18 13 19 18 22 24 23 26 11 33 28 196 212 207 210 222 237 246 264 254 245 243 248 238 234 214 213 203 197 197 186 184 182 183 186 188 190 193 192 187 172 179 183 186 186 184 180 176 179 175 171 165 185 160 168 171
260 260 260 262 277 287 297 301 112 235 245 294 308 299 286 268 266 270 279 277 274 256 277 338 33 35 56 56 61 68 61 50 42 33 25 20 23 24 22 19 14 12 13 15 19 22 26 24 19 14 16 19 360 316 271 269 248 222 209 265 7 256 355 75 175 200 193 195 206 196 199 200 195 194 191 190 191 195 197 197 189 180 179 184 188 187 186 185 178 182 181 183 168 163 178 179 188
249 246 257 269 270 273 284 297 310 313 286 272 294 281 292 288 219 186 178 213 254 292 54 66 69 70 80 76 65 57 55 48 42 33 24 19 20 22 20 18 15 17 15 16 16 21 28 27 22 19 27 24 13 13 350 299 27 148 151 111 98 197 117 192 182 218 209 207 214 209 211 204 202 200 195 192 190 195 198 203 200 188 181 186 190 194 193 189 183 188 184 183 182 174 178 167 188
270 255 251 259 274 285 287 300 315 306 291 101 336 325 302 10 280 284 301 294 272 77 78 72 67 66 64 62 59 58 57 51 49 38 31 25 23 22 22 22 23 19 16 11 11 20 32 34 28 28 33 34 18 15 359 325 320 289 252 243 240 229 243 228 234 236 222 218 220 219 213 206 204 204 202 201 200 198 202 205 202 196 187 187 194 201 200 189 189 188 187 189 188 194 176 156 177
267 263 15 280 282 289 292 293 313 291 300 97 70 299 298 259 279 278 274 262 269 84 81 78 79 71 63 57 53 47 47 54 48 45 36 31 24 23 24 24 24 22 13 4 4 18 34 40 35 33 35 34 25 13 13 355 343 326 311 300 305 304 302 291 288 272 254 244 230 220 212 203 207 208 210 208 204 200 204 207 207 206 197 195 198 205 203 198 191 192 185 195 193 190 179 181 181
262 43 333 330 292 281 295 310 278 272 288 277 237 219 272 302 293 165 224 259 108 89 83 83 81 83 81 78 63 50 49 49 52 43 36 33 30 28 26 23 24 21 10 5 13 21 34 39 37 33 34 33 27 19 19 15 355 2 352 331 313 307 308 313 323 328 308 279 257 223 217 210 205 212 217 216 214 208 204 207 206 204 204 204 198 210 210 205 187 193 195 198 194 196 193 193 184
349 20 9 349 337 322 319 286 281 289 300 295 176 211 263 264 333 160 263 276 163 96 102 99 87 78 77 74 70 64 55 54 53 47 36 31 30 29 27 28 25 23 19 18 20 28 37 39 37 34 34 32 26 24 20 21 19 4 358 353 344 335 326 316 313 314 308 287 256 237 226 228 215 215 219 221 218 218 210 213 212 209 208 209 203 207 210 209 201 185 189 194 201 200 201 200 188
92 112 97 192 258 229 266 272 279 283 278 272 216 186 262 286 293 221 145 253 165 114 115 110 97 91 81 76 73 71 65 60 59 59 52 40 32 30 27 29 29 24 19 16 26 36 41 39 37 34 33 31 25 25 24 22 21 16 11 12 358 344 339 332 330 324 315 303 279 253 243 235 234 219 219 221 220 219 218 214 217 215 213 212 210 208 210 213 210 202 197 201 205 207 207 206 205
70 288 298 264 241 249 237 247 262 272 255 264 249 191 218 290 310 191 217 66 127 125 119 117 108 95 78 66 64 57 58 60 52 49 48 49 40 33 24 27 25 24 22 22 28 34 37 37 34 36 33 31 27 26 24 23 22 19 18 9 2 352 348 336 327 323 320 313 301 291 267 252 239 232 218 219 222 220 222 220 219 220 219 217 215 214 213 208 201 196 195 202 206 209 210 209 212
214 272 288 309 275 215 255 238 226 264 277 328 49 185 204 248 172 157 91 119 58 71 139 131 117 103 89 79 65 51 44 50 54 44 35 30 31 32 32 29 26 26 28 29 30 31 34 33 33 35 33 31 29 26 27 27 22 20 15 10 5 2 353 347 338 329 326 318 310 298 292 276 259 244 228 226 222 221 219 221 222 225 223 221 220 214 212 213 211 200 192 192 201 209 215 212 214
219 235 253 271 289 281 264 207 232 227 267 115 80 111 238 234 242 262 219 121 118 127 128 127 120 111 96 77 66 64 59 52 51 51 39 29 28 26 26 22 22 28 31 30 29 29 29 32 32 36 36 34 34 32 32 28 27 21 14 10 6 359 356 352 340 336 331 321 318 313 306 297 287 266 248 234 227 217 214 217 220 219 222 222 222 219 217 215 218 211 202 203 206 206 210 211 211
194 214 222 249 275 266 270 276 278 275 122 111 95 58 262 272 274 235 235 92 89 88 87 101 102 102 94 87 78 60 55 56 48 46 48 42 31 27 23 21 26 30 32 32 29 30 27 28 28 32 35 34 36 38 36 37 35 28 20 15 8 2 2 354 349 344 341 333 328 321 316 309 303 295 285 262 248 221 216 219 220 223 224 226 221 222 218 216 216 221 208 211 210 212 211 215 220
201 210 199 231 256 266 278 281 271 272 290 10 245 289 234 288 352 60 77 95 94 92 87 82 83 88 89 90 82 69 61 52 51 43 38 35 31 26 24 26 29 33 32 31 29 27 29 30 28 29 32 29 31 32 33 37 37 35 32 25 19 7 3 359 355 352 341 337 331 325 319 314 307 304 300 296 276 245 222 221 222 225 225 224 224 223 219 221 216 220 218 218 217 215 219 217 221
205 216 262 267 243 244 257 276 282 296 302 283 216 209 305 296 105 106 102 95 88 84 85 89 88 86 89 81 69 63 58 54 47 48 42 35 32 25 27 33 38 35 32 29 26 23 22 21 22 27 30 28 27 26 29 28 29 28 30 30 26 21 15 7 3 358 347 338 330 323 316 312 309 308 306 302 294 267 239 228 229 228 227 226 223 223 218 217 214 220 227 223 223 216 221 221 224
94 134 214 253 15 293 282 272 262 275 272 261 268 267 262 265 231 132 101 91 90 95 93 89 87 87 83 77 71 67 62 53 48 43 35 28 29 29 29 31 31 32 32 28 23 20 22 18 18 21 23 24 23 22 24 24 23 27 25 23 20 18 19 18 11 1 351 344 335 328 321 318 314 311 307 306 298 284 261 241 237 237 233 229 228 225 222 221 220 224 226 225 226 219 220 223 222
102 220 215 356 242 348 267 273 271 258 257 262 249 267 272 269 275 114 121 107 115 104 96 96 94 92 83 79 77 73 69 62 58 50 34 27 27 26 27 26 26 24 23 20 16 12 14 19 17 24 22 21 17 15 15 14 13 16 16 16 15 15 13 14 15 10 3 354 349 341 332 328 325 318 308 299 292 288 283 265 249 243 242 239 232 229 226 223 221 225 224 228 230 222 225 228 224
251 286 358 296 251 252 209 230 248 253 253 263 240 254 256 261 268 224 170 143 136 117 114 113 103 96 95 93 87 80 69 60 45 36 29 26 24 23 19 18 16 18 14 14 6 9 20 24 25 28 25 20 15 12 8 16 17 16 13 11 8 7 5 6 7 11 11 7 4 353 339 328 316 308 302 297 292 286 279 270 258 249 242 237 235 233 228 226 220 226 225 230 227 228 233 232 228
120 334 265 208 337 254 267 262 303 271 268 270 253 242 258 246 280 321 32 139 135 134 129 110 99 99 95 91 81 68 54 47 32 29 28 22 24 16 10 3 4 4 7 360 350 353 14 16 16 22 23 19 16 17 9 16 14 13 13 13 12 8 3 7 7 11 10 7 2 355 348 343 329 315 306 301 295 289 286 282 272 260 252 244 238 232 227 227 226 228 229 229 225 220 230 233 233
192 211 238 200 219 33 310 349 247 248 265 255 276 264 259 274 9 79 107 114 131 140 135 127 114 105 94 79 70 60 49 34 36 30 27 23 357 354 330 317 284 270 268 282 298 359 11 9 14 11 14 5 11 9 9 14 13 12 12 13 8 3 5 8 8 14 12 4 360 354 350 339 326 324 320 314 306 302 296 286 276 267 259 252 246 242 232 226 227 231 231 232 231 225 226 230 232
273 251 246 248 257 256 257 258 204 232 236 254 256 261 256 286 18 58 90 90 94 105 121 122 120 105 95 78 60 55 42 33 30 22 9 1 323 294 245 259 261 257 275 326 331 354 1 15 15 357 5 15 7 5 7 3 5 2 7 12 11 8 8 5 6 3 6 357 355 352 348 339 339 327 330 320 317 311 305 299 290 280 270 256 250 245 239 234 234 232 230 228 233 235 235 233 229